Weather History for KSPF - December, 2013

Change the Weather History Date:

Monday, December 16, 2013

  Actual Average (KEFC) Record (KEFC)
Temperature  
Mean Temperature 38 °F -  
Max Temperature 46 °F 37 °F 67 °F (1980)
Min Temperature 30 °F 13 °F -27 °F (1979)
Degree Days  
Heating Degree Days 27    
Moisture  
Dew Point 25 °F    
Average Humidity 65    
Maximum Humidity 87    
Minimum Humidity 34    
Precipitation  
Precipitation 0.00 in - - ()
Sea Level Pressure  
Sea Level Pressure 30.03 in    
Wind  
Wind Speed 11 mph (WNW)    
Max Wind Speed 22 mph    
Max Gust Speed 34 mph    
Visibility 10 miles    
Events      
Averages and records for this station are not official NWS values.
T = Trace of Precipitation, MM = Missing Value Source: NWS Daily Summary

Daily Weather History Graph

Daily Weather History Graph

Search for Another Location

Airport or City:

Trip Planner

Search our weather history database for the weather conditions in past years. The results will help you decide how hot, cold, wet, or windy it might be!

Date:

Astronomy

Dec. 16, 2013 Rise Set
Actual Time 8:25 AM CST 5:16 PM CST
Civil Twilight 7:52 AM CST 5:49 PM CST
Nautical Twilight 7:15 AM CST 6:26 PM CST
Astronomical Twilight 6:39 AM CST 7:02 PM CST
Moon 5:10 PM CST (12/16) 7:33 AM CST (12/16)
Length of Visible Light 9h 57m
Length of Day
8h 50m
Full, 100% of the Moon is Illuminated
Dec 16
Full
Dec 17
Full
Dec 25
Last Quarter
Jan 1
New
Jan 7
First Quarter

Hourly Weather History & Observations

Time (CST) Temp. Windchill Dew Point Humidity Pressure Visibility Wind Dir Wind Speed Gust Speed Precip Events Conditions
12:15 AM 44.6 °F 38.8 °F 19.4 °F 37% 29.91 in 10.0 mi West 11.5 mph 18.4 mph N/A   Clear
12:35 AM 46.4 °F 39.5 °F 19.4 °F 34% 29.90 in 10.0 mi West 17.3 mph 24.2 mph N/A   Clear
12:55 AM 46.4 °F 38.5 °F 19.4 °F 34% 29.91 in 10.0 mi West 21.9 mph 34.5 mph N/A   Clear
1:15 AM 46.4 °F 39.8 °F 19.4 °F 34% 29.92 in 10.0 mi West 16.1 mph 32.2 mph N/A   Clear
1:35 AM 46.4 °F 39.5 °F 21.2 °F 37% 29.92 in 10.0 mi West 17.3 mph 27.6 mph N/A   Mostly Cloudy
1:55 AM 46.4 °F 40.4 °F 21.2 °F 37% 29.92 in 10.0 mi West 13.8 mph 21.9 mph N/A   Mostly Cloudy
2:15 AM 46.4 °F 39.2 °F 21.2 °F 37% 29.92 in 10.0 mi West 18.4 mph 24.2 mph N/A   Overcast
2:35 AM 46.4 °F 39.8 °F 21.2 °F 37% 29.93 in 10.0 mi West 16.1 mph 24.2 mph N/A   Overcast
2:55 AM 46.4 °F 39.8 °F 21.2 °F 37% 29.94 in 10.0 mi West 16.1 mph 21.9 mph N/A   Overcast
3:15 AM 46.4 °F 39.2 °F 23.0 °F 40% 29.95 in 10.0 mi West 18.4 mph 23.0 mph N/A   Overcast
3:35 AM 46.4 °F 40.4 °F 23.0 °F 40% 29.95 in 10.0 mi West 13.8 mph 19.6 mph N/A   Overcast
4:15 AM 44.6 °F 38.1 °F 23.0 °F 43% 29.95 in 10.0 mi West 13.8 mph 20.7 mph N/A   Mostly Cloudy
4:35 AM 44.6 °F 38.1 °F 23.0 °F 43% 29.96 in 10.0 mi West 13.8 mph 18.4 mph N/A   Partly Cloudy
4:55 AM 42.8 °F 37.5 °F 23.0 °F 46% 29.98 in 10.0 mi NNW 9.2 mph - N/A   Mostly Cloudy
5:15 AM 39.2 °F 32.0 °F 24.8 °F 56% 29.99 in 10.0 mi NW 11.5 mph - N/A   Overcast
5:35 AM 39.2 °F 33.6 °F 24.8 °F 56% 29.99 in 10.0 mi NW 8.1 mph - N/A   Overcast
5:55 AM 37.4 °F 32.1 °F 24.8 °F 60% 30.00 in 10.0 mi WNW 6.9 mph - N/A   Overcast
6:15 AM 37.4 °F 32.8 °F 24.8 °F 60% 30.01 in 10.0 mi NW 5.8 mph - N/A   Overcast
6:35 AM 37.4 °F 32.8 °F 24.8 °F 60% 30.01 in 10.0 mi NNW 5.8 mph - N/A   Overcast
6:55 AM 37.4 °F - 24.8 °F 60% 30.01 in 10.0 mi Calm Calm - N/A   Overcast
7:15 AM 37.4 °F 34.9 °F 24.8 °F 60% 30.00 in 10.0 mi WNW 3.5 mph - N/A   Overcast
7:35 AM 37.4 °F 34.9 °F 24.8 °F 60% 30.01 in 10.0 mi NW 3.5 mph - N/A   Overcast
7:55 AM 37.4 °F 34.9 °F 24.8 °F 60% 30.01 in 10.0 mi WNW 3.5 mph - N/A   Overcast
8:15 AM 35.6 °F 31.7 °F 24.8 °F 65% 30.01 in 10.0 mi NNW 4.6 mph - N/A   Overcast
8:35 AM 35.6 °F 32.8 °F 24.8 °F 65% 30.01 in 10.0 mi WNW 3.5 mph - N/A   Overcast
8:55 AM 33.8 °F 27.0 °F 24.8 °F 70% 30.02 in 10.0 mi NW 8.1 mph - N/A   Overcast
9:15 AM 32.0 °F 25.6 °F 26.6 °F 80% 30.03 in 10.0 mi WNW 6.9 mph - N/A   Overcast
9:35 AM 32.0 °F 26.4 °F 26.6 °F 80% 30.03 in 10.0 mi WSW 5.8 mph - N/A   Mostly Cloudy
9:55 AM 32.0 °F 26.4 °F 26.6 °F 80% 30.04 in 10.0 mi West 5.8 mph - N/A   Mostly Cloudy
10:15 AM 33.8 °F - 26.6 °F 75% 30.04 in 10.0 mi Calm Calm - N/A   Partly Cloudy
10:35 AM 33.8 °F 27.7 °F 26.6 °F 75% 30.05 in 10.0 mi NW 6.9 mph - N/A   Partly Cloudy
10:55 AM 32.0 °F 24.8 °F 26.6 °F 80% 30.04 in 10.0 mi WSW 8.1 mph 17.3 mph N/A   Scattered Clouds
11:15 AM 32.0 °F 27.5 °F 28.4 °F 87% 30.05 in 10.0 mi NW 4.6 mph - N/A   Scattered Clouds
11:35 AM 32.0 °F 24.8 °F 26.6 °F 80% 30.04 in 10.0 mi NNW 8.1 mph - N/A   Clear
11:55 AM 32.0 °F - 28.4 °F 87% 30.04 in 10.0 mi Calm Calm - N/A   Clear
12:15 PM 32.0 °F - 28.4 °F 87% 30.03 in 10.0 mi Calm Calm - N/A   Clear
12:35 PM 32.0 °F 27.5 °F 28.4 °F 87% 30.04 in 10.0 mi NW 4.6 mph - N/A   Clear
12:55 PM 32.0 °F 25.6 °F 28.4 °F 87% 30.03 in 10.0 mi West 6.9 mph - N/A   Clear
1:15 PM 32.0 °F 26.4 °F 28.4 °F 87% 30.03 in 10.0 mi NW 5.8 mph - N/A   Clear
1:35 PM 32.0 °F 26.4 °F 26.6 °F 80% 30.02 in 10.0 mi WNW 5.8 mph - N/A   Clear
1:55 PM 32.0 °F 27.5 °F 26.6 °F 80% 30.02 in 10.0 mi NW 4.6 mph - N/A   Clear
2:15 PM 32.0 °F 26.4 °F 26.6 °F 80% 30.02 in 10.0 mi NW 5.8 mph - N/A   Clear
2:35 PM 32.0 °F 27.5 °F 26.6 °F 80% 30.03 in 10.0 mi NW 4.6 mph - N/A   Clear
2:55 PM 32.0 °F 27.5 °F 26.6 °F 80% 30.03 in 10.0 mi NW 4.6 mph - N/A   Clear
3:15 PM 32.0 °F 28.7 °F 28.4 °F 87% 30.03 in 10.0 mi West 3.5 mph - N/A   Clear
3:35 PM 32.0 °F 27.5 °F 28.4 °F 87% 30.03 in 10.0 mi NNW 4.6 mph - N/A   Clear
3:55 PM 32.0 °F 26.4 °F 26.6 °F 80% 30.04 in 10.0 mi NW 5.8 mph - N/A   Clear
4:15 PM 32.0 °F 28.7 °F 26.6 °F 80% 30.05 in 10.0 mi WNW 3.5 mph - N/A   Partly Cloudy
4:35 PM 32.0 °F 28.7 °F 26.6 °F 80% 30.06 in 10.0 mi NNW 3.5 mph - N/A   Mostly Cloudy
4:55 PM 32.0 °F 28.7 °F 26.6 °F 80% 30.07 in 10.0 mi WNW 3.5 mph - N/A   Mostly Cloudy
5:15 PM 32.0 °F 28.7 °F 26.6 °F 80% 30.07 in 10.0 mi WNW 3.5 mph - N/A   Mostly Cloudy
5:35 PM 32.0 °F 24.8 °F 26.6 °F 80% 30.08 in 10.0 mi West 8.1 mph - N/A   Mostly Cloudy
5:55 PM 35.6 °F 28.0 °F 24.8 °F 65% 30.08 in 10.0 mi NW 10.4 mph 21.9 mph N/A   Overcast
6:15 PM 32.0 °F 27.5 °F 26.6 °F 80% 30.08 in 10.0 mi North 4.6 mph - N/A   Overcast
6:35 PM 33.8 °F 28.6 °F 26.6 °F 75% 30.09 in 10.0 mi NNW 5.8 mph - N/A   Overcast
6:55 PM 32.0 °F 24.2 °F 26.6 °F 80% 30.09 in 10.0 mi NW 9.2 mph - N/A   Mostly Cloudy
7:15 PM 30.2 °F 23.4 °F 26.6 °F 86% 30.09 in 10.0 mi West 6.9 mph - N/A   Mostly Cloudy
7:35 PM 35.6 °F 27.1 °F 24.8 °F 65% 30.09 in 10.0 mi West 12.7 mph 18.4 mph N/A   Mostly Cloudy
7:55 PM 35.6 °F 26.2 °F 24.8 °F 65% 30.09 in 10.0 mi West 15.0 mph 23.0 mph N/A   Overcast
8:15 PM 37.4 °F 29.3 °F 23.0 °F 56% 30.10 in 10.0 mi West 12.7 mph 19.6 mph N/A   Partly Cloudy
8:35 PM 37.4 °F 28.9 °F 23.0 °F 56% 30.10 in 10.0 mi West 13.8 mph 19.6 mph N/A   Clear
8:55 PM 37.4 °F 29.8 °F 23.0 °F 56% 30.11 in 10.0 mi West 11.5 mph - N/A   Mostly Cloudy
9:15 PM 37.4 °F 28.9 °F 23.0 °F 56% 30.11 in 10.0 mi West 13.8 mph - N/A   Overcast
9:35 PM 37.4 °F 28.9 °F 23.0 °F 56% 30.12 in 10.0 mi West 13.8 mph 20.7 mph N/A   Overcast
9:55 PM 37.4 °F 28.9 °F 23.0 °F 56% 30.13 in 10.0 mi West 13.8 mph 19.6 mph N/A   Overcast
10:15 PM 35.6 °F 25.9 °F 23.0 °F 60% 30.13 in 10.0 mi West 16.1 mph 21.9 mph N/A   Mostly Cloudy
10:35 PM 35.6 °F 27.1 °F 23.0 °F 60% 30.13 in 10.0 mi West 12.7 mph 17.3 mph N/A   Scattered Clouds
10:55 PM 35.6 °F 27.5 °F 23.0 °F 60% 30.14 in 10.0 mi West 11.5 mph 17.3 mph N/A   Partly Cloudy
11:15 PM 35.6 °F 28.0 °F 23.0 °F 60% 30.15 in 10.0 mi West 10.4 mph 16.1 mph N/A   Scattered Clouds
11:55 PM 35.6 °F 25.9 °F 21.2 °F 56% 30.16 in 10.0 mi West 16.1 mph 20.7 mph N/A   Mostly Cloudy